Location: Quedlinburg
(51.7921°N, 11.1414°E)
Time: 04:44:03
(UTC+02:00)

STRAND 1 - Pass Details

Date: 22 March 2026
Orbit: 761 x 775 km, 98.4° (Epoch: 16 April)

Event Time Altitude Azimuth Distance (km) Brightness Sun altitude
Rises 20:29:20 0° 3° (N) 3,241 ? -18.3°
Reaches altitude 10° 20:32:57 10° 336° (NNW) 2,308 ? -18.8°
Maximum altitude 20:35:06 13° 311° (NW) 2,115 ? -19.1°
Drops below altitude 10° 20:37:15 10° 286° (WNW) 2,301 ? -19.4°
Sets 20:40:51 0° 259° (WSW) 3,222 ? -19.9°
